Punta Gorda, FL

3:44 AM EST on December 13, 2019 (GMT -0500)
Charlotte County

Weather History for KPGD - September, 2019

Change the Weather History Date:

Wednesday, September 25, 2019

  Actual Average Record
Temperature  
Mean Temperature 77 °F -  
Max Temperature 91 °F 86 °F 95 °F (2018)
Min Temperature 64 °F 70 °F 64 °F (1996)
Cooling Degree Days 12    
Growing Degree Days 27 (Base 50)    
Moisture  
Dew Point 67 °F    
Average Humidity 73    
Maximum Humidity 100    
Minimum Humidity 42    
Precipitation  
Precipitation 0.00 in - - ()
Sea Level Pressure  
Sea Level Pressure 29.93 in    
Wind  
Wind Speed 6 mph (ENE)    
Max Wind Speed 15 mph    
Max Gust Speed 21 mph    
Visibility 10 miles    
Events      
Averages and records for this station are not official NWS values.
T = Trace of Precipitation, MM = Missing Value Source: NWS Daily Summary

Daily Weather History Graph

Daily Weather History Graph

Search for Another Location

Airport or City:

Astronomy

Sep. 25, 2019 Rise Set
Actual Time 7:17 AM EDT 7:21 PM EDT
Civil Twilight 6:54 AM EDT 7:44 PM EDT
Nautical Twilight 6:27 AM EDT 8:11 PM EDT
Astronomical Twilight 6:00 AM EDT 8:38 PM EDT
Moon 3:39 AM EDT (9/25) 5:26 PM EDT (9/25)
Length of Visible Light 12h 49m
Length of Day
12h 03m
Waning Crescent, 14% of the Moon is Illuminated
Sep 25
Waning Crescent
Sep 28
New
Oct 5
First Quarter
Oct 13
Full
Oct 21
Last Quarter

Hourly Weather History & Observations

Time (EDT) Temp. Heat Index Dew Point Humidity Pressure Visibility Wind Dir Wind Speed Gust Speed Precip Events Conditions
12:53 AM 71.1 °F - 68.0 °F 90% 29.91 in 10.0 mi ESE 5.8 mph - N/A   Clear
1:53 AM 70.0 °F - 68.0 °F 93% 29.91 in 10.0 mi SSE 3.5 mph - N/A   Clear
2:53 AM 68.0 °F - 68.0 °F 100% 29.90 in 10.0 mi Calm Calm - N/A   Clear
3:53 AM 66.9 °F - 66.9 °F 100% 29.91 in 10.0 mi NNW 5.8 mph - N/A   Clear
4:53 AM 66.9 °F - 66.9 °F 100% 29.91 in 10.0 mi NNW 3.5 mph - N/A   Clear
5:53 AM 66.0 °F - 66.0 °F 100% 29.92 in 10.0 mi Calm Calm - N/A   Clear
6:53 AM 64.9 °F - 64.9 °F 100% 29.94 in 10.0 mi NE 5.8 mph - N/A   Clear
7:53 AM 66.9 °F - 66.9 °F 100% 29.94 in 10.0 mi NE 4.6 mph - N/A   Clear
8:53 AM 73.0 °F - 70.0 °F 90% 29.97 in 10.0 mi NE 4.6 mph - N/A   Clear
9:53 AM 80.1 °F 82.3 °F 66.9 °F 64% 29.98 in 10.0 mi Variable 3.5 mph - N/A   Clear
10:53 AM 82.9 °F 85.4 °F 66.9 °F 58% 29.99 in 10.0 mi NE 4.6 mph - N/A   Clear
11:53 AM 86.0 °F 88.2 °F 66.0 °F 51% 29.98 in 10.0 mi North 4.6 mph - N/A   Clear
12:53 PM 88.0 °F 90.3 °F 66.0 °F 48% 29.96 in 10.0 mi NE 12.7 mph - N/A   Partly Cloudy
1:53 PM 90.0 °F 91.7 °F 64.9 °F 43% 29.94 in 10.0 mi NE 13.8 mph 20.7 mph N/A   Clear
2:53 PM 90.0 °F 91.3 °F 64.0 °F 42% 29.91 in 10.0 mi NE 6.9 mph - N/A   Clear
3:53 PM 90.0 °F 91.7 °F 64.9 °F 43% 29.89 in 10.0 mi ENE 11.5 mph - N/A   Partly Cloudy
4:53 PM 89.1 °F 91.0 °F 64.9 °F 45% 29.88 in 10.0 mi ENE 15.0 mph - N/A   Clear
5:53 PM 89.1 °F 91.3 °F 66.0 °F 46% 29.88 in 10.0 mi ENE 9.2 mph - N/A   Clear
6:53 PM 84.9 °F 88.2 °F 68.0 °F 57% 29.88 in 10.0 mi ENE 5.8 mph - N/A   Clear
7:53 PM 77.0 °F - 69.1 °F 76% 29.89 in 10.0 mi ENE 5.8 mph - N/A   Clear
8:53 PM 78.1 °F - 66.0 °F 66% 29.91 in 10.0 mi ESE 8.1 mph - N/A   Clear
9:53 PM 75.9 °F - 66.0 °F 71% 29.93 in 10.0 mi East 5.8 mph - N/A   Clear
10:53 PM 75.0 °F - 69.1 °F 82% 29.94 in 10.0 mi East 8.1 mph - N/A   Clear
11:53 PM 73.9 °F - 70.0 °F 87% 29.94 in 10.0 mi East 6.9 mph - N/A   Clear